Temp
86 86 86 85 85 86 85 85 85 85 84 84 84 84 83 85 85 84 84 84 83 83 82 81 82 82 82 81 80 80 79 80 80 79 79 79 78 79 80 80 81 78
86 86 85 86 85 85 85 86 85 85 84 84 84 84 84 85 86 85 84 83 83 83 82 83 81 81 80 80 79 79 79 79 79 82 79 79 79 80 81 80 79 79
87 86 86 86 86 87 89 87 86 86 85 86 86 85 85 85 85 85 84 84 83 83 82 81 81 80 80 80 79 79 78 77 77 81 79 78 79 78 79 81 80 79
86 87 87 88 87 87 87 86 86 86 86 85 86 86 86 86 85 85 84 84 82 82 82 82 81 81 80 80 79 78 78 77 78 78 78 78 78 79 78 78 79 79
87 87 87 88 88 87 87 86 87 86 87 86 87 85 84 83 84 84 83 83 82 82 81 81 81 81 79 79 79 77 78 78 78 78 77 77 78 78 79 78 77 77
87 87 87 87 87 86 87 87 87 87 87 87 86 86 85 84 84 84 83 83 84 84 83 82 81 81 81 79 78 78 78 78 79 78 77 77 78 79 80 78 77 76
87 87 88 88 88 88 87 86 87 86 87 87 86 85 85 85 84 83 83 83 83 82 82 80 79 80 80 79 77 77 77 78 78 78 77 76 76 77 79 79 78 78
88 89 88 88 88 88 87 87 87 86 86 86 86 85 85 86 84 84 83 83 83 81 81 81 80 79 81 79 77 77 77 79 78 77 77 77 77 76 77 78 78 76
89 88 88 88 88 89 90 90 88 87 87 86 86 87 85 85 84 84 83 82 82 81 80 80 79 79 79 79 77 77 76 77 78 77 77 77 77 77 77 78 77 76
88 88 89 90 90 90 90 91 91 89 88 87 87 87 86 84 84 84 83 81 81 80 80 80 79 79 79 79 78 78 77 76 77 77 77 77 77 77 78 77 77 76
89 90 89 89 90 91 91 92 92 91 89 88 88 87 86 85 83 84 82 81 81 80 80 79 79 79 78 79 79 79 78 78 77 77 77 78 78 77 78 77 77 77
89 90 90 90 90 90 91 92 92 90 90 89 89 88 86 86 84 83 82 81 81 80 80 80 79 79 78 79 80 79 78 78 78 78 78 78 78 78 78 78 77 77
90 89 88 90 89 89 90 90 91 92 91 90 90 89 87 85 84 83 82 82 81 81 81 80 79 79 78 78 78 78 77 77 78 78 78 78 78 79 79 79 78 77
90 88 88 88 88 87 88 89 89 89 88 87 87 87 87 86 85 83 83 82 81 81 80 80 79 79 78 78 77 77 77 77 77 78 78 78 78 78 79 80 79 78
88 89 88 88 87 87 87 87 87 87 87 86 85 85 86 86 86 84 82 81 81 81 80 80 80 79 79 78 77 77 77 77 77 78 78 77 77 78 78 78 78 77
88 88 88 87 86 86 85 86 86 86 86 85 85 85 85 85 85 83 83 82 81 80 80 80 79 79 74 69 72 77 77 78 78 77 77 77 77 76 77 77 77 78
88 87 87 86 86 86 85 85 85 85 85 84 84 84 84 83 83 82 83 82 81 80 80 79 79 79 68 66 69 72 77 77 77 77 77 77 77 76 75 75 75 75
88 87 86 86 86 85 85 85 85 85 84 84 84 84 83 83 83 82 82 82 81 81 80 80 80 70 64 66 68 68 72 78 78 78 78 77 77 76 75 75 74 74
87 87 86 85 85 85 85 85 84 84 84 84 84 83 82 81 81 81 81 81 81 80 80 80 81 66 65 65 66 66 67 72 79 78 77 77 77 77 75 73 73 73
87 86 86 85 85 85 85 84 84 83 84 84 84 82 81 80 81 80 80 80 79 79 78 79 80 65 64 63 65 65 66 69 77 78 77 77 77 76 75 74 73 73
86 86 85 85 84 84 83 83 83 83 83 83 84 82 80 79 80 79 79 80 80 79 79 79 81 63 62 62 63 64 65 68 76 77 77 76 76 76 74 74 74 75
84 84 84 83 83 83 83 82 83 82 82 82 83 83 82 82 81 81 79 79 79 78 79 77 79 61 63 62 63 63 64 70 74 75 75 75 75 74 74 74 75 75
84 83 82 83 83 82 82 82 82 82 82 82 82 82 83 81 80 81 79 79 78 78 78 77 77 62 61 61 62 62 63 71 74 74 74 73 73 74 74 75 75 76
84 83 82 82 81 81 81 81 83 82 82 82 82 82 82 83 82 80 79 79 78 78 79 77 79 64 58 59 61 60 64 72 73 73 72 72 73 74 74 73 74 76
84 83 83 82 81 81 82 81 82 82 83 83 82 82 82 82 82 81 80 79 80 79 75 77 80 66 55 58 57 57 65 73 72 72 71 72 73 72 71 72 71 71
84 83 82 82 81 81 81 82 82 82 82 82 81 81 80 81 81 81 80 81 81 79 78 79 79 70 61 55 55 55 61 73 72 71 71 72 73 72 70 70 71 70
MSLP
1010.07 1010.35 1010.75 1011.07 1011.27 1011.39 1011.63 1012.03 1012.23 1012.59 1012.79 1012.91 1013.27 1013.31 1013.43 1013.35 1013.35 1013.71 1013.95 1014.07 1014.27 1014.51 1014.75 1014.99 1015.23 1015.43 1015.59 1015.79 1015.99 1016.19 1016.35 1016.47 1016.47 1016.63 1016.83 1016.95 1017.27 1017.27 1017.47 1017.39 1017.39 1017.51
1009.75 1009.99 1010.31 1010.59 1010.95 1011.03 1011.23 1011.43 1011.83 1012.15 1012.43 1012.51 1012.67 1012.83 1012.95 1013.07 1013.15 1013.31 1013.59 1013.91 1013.95 1014.19 1014.35 1014.71 1015.03 1015.27 1015.55 1015.79 1015.99 1016.31 1016.43 1016.43 1016.55 1016.19 1016.51 1016.71 1016.87 1016.95 1017.19 1017.27 1017.39 1017.35
1009.35 1009.71 1010.03 1010.47 1010.71 1010.87 1010.95 1011.07 1011.39 1011.71 1011.99 1012.07 1012.11 1012.35 1012.63 1012.67 1012.87 1012.87 1013.07 1013.35 1013.67 1013.87 1014.15 1014.43 1014.83 1015.15 1015.43 1015.63 1015.87 1016.19 1016.43 1016.59 1016.71 1016.35 1016.27 1016.39 1016.43 1016.87 1016.95 1016.99 1017.15 1017.27
1008.95 1009.19 1009.55 1009.87 1010.11 1010.47 1010.55 1010.91 1011.19 1011.35 1011.55 1011.87 1011.99 1011.95 1012.11 1012.31 1012.43 1012.63 1012.75 1012.91 1013.27 1013.59 1013.87 1014.23 1014.59 1014.99 1015.27 1015.47 1015.75 1016.07 1016.23 1016.47 1016.55 1016.55 1016.59 1016.35 1016.19 1016.27 1016.51 1016.67 1016.87 1017.07
1008.51 1008.83 1009.07 1009.35 1009.59 1009.83 1010.15 1010.63 1010.91 1011.11 1011.27 1011.39 1011.43 1011.51 1011.79 1011.99 1012.11 1012.23 1012.47 1012.71 1012.95 1013.31 1013.67 1014.07 1014.39 1014.79 1015.07 1015.35 1015.59 1015.99 1016.07 1016.27 1016.27 1016.51 1016.83 1016.95 1016.59 1016.47 1016.47 1016.55 1016.79 1016.99
1008.03 1008.31 1008.63 1008.99 1009.23 1009.51 1009.91 1010.23 1010.39 1010.67 1010.83 1010.99 1011.11 1011.15 1011.39 1011.59 1011.79 1011.91 1012.19 1012.51 1012.75 1013.07 1013.51 1013.87 1014.27 1014.51 1014.75 1015.07 1015.35 1015.71 1015.91 1016.07 1016.07 1016.23 1016.59 1016.91 1016.87 1016.59 1016.47 1016.55 1016.75 1016.91
1007.79 1008.03 1008.35 1008.51 1008.79 1008.95 1009.43 1009.79 1009.95 1010.11 1010.31 1010.35 1010.55 1010.83 1010.91 1011.27 1011.47 1011.63 1011.87 1012.27 1012.63 1012.99 1013.35 1013.71 1014.03 1014.31 1014.43 1014.75 1015.15 1015.55 1015.75 1015.91 1015.99 1016.15 1016.51 1016.67 1016.79 1016.83 1016.59 1016.51 1016.59 1016.75
1007.31 1007.55 1007.83 1008.03 1008.35 1008.63 1009.15 1009.43 1009.55 1009.67 1009.79 1009.91 1010.23 1010.23 1010.35 1010.71 1010.99 1011.15 1011.51 1011.99 1012.43 1012.79 1013.07 1013.31 1013.63 1013.99 1014.15 1014.51 1014.99 1015.35 1015.63 1015.71 1015.91 1016.03 1016.27 1016.47 1016.55 1016.79 1016.63 1016.43 1016.51 1016.71
1006.79 1007.23 1007.39 1007.63 1007.95 1008.39 1008.79 1008.87 1009.03 1009.19 1009.19 1009.55 1009.75 1009.91 1009.99 1010.23 1010.55 1010.83 1011.31 1011.71 1012.07 1012.39 1012.71 1012.95 1013.27 1013.63 1013.87 1014.23 1014.67 1015.03 1015.35 1015.51 1015.59 1015.83 1016.03 1016.23 1016.39 1016.43 1016.39 1016.23 1016.43 1016.59
1006.47 1006.67 1006.95 1007.19 1007.71 1007.91 1008.15 1008.15 1008.27 1008.55 1008.75 1009.11 1009.31 1009.43 1009.75 1009.87 1010.11 1010.51 1010.87 1011.27 1011.71 1012.07 1012.39 1012.67 1012.99 1013.35 1013.67 1013.95 1014.27 1014.63 1014.99 1015.23 1015.35 1015.51 1015.67 1015.87 1016.07 1016.15 1016.11 1016.11 1016.23 1016.43
1005.99 1006.15 1006.51 1006.91 1007.23 1007.23 1007.35 1007.47 1007.71 1008.03 1008.23 1008.55 1008.79 1008.99 1009.07 1009.47 1009.83 1010.07 1010.51 1010.87 1011.27 1011.67 1012.03 1012.31 1012.63 1012.99 1013.43 1013.71 1013.87 1014.11 1014.47 1014.75 1014.99 1015.15 1015.31 1015.47 1015.63 1015.75 1015.71 1015.75 1015.87 1016.11
1005.39 1005.55 1005.91 1006.35 1006.55 1006.63 1006.75 1006.83 1006.99 1007.39 1007.71 1007.91 1008.03 1008.43 1008.71 1009.07 1009.51 1009.79 1010.07 1010.51 1010.79 1011.15 1011.47 1011.83 1012.11 1012.51 1012.95 1013.27 1013.47 1013.75 1014.07 1014.35 1014.59 1014.83 1014.99 1015.07 1015.19 1015.27 1015.35 1015.35 1015.55 1015.71
1004.71 1004.99 1005.31 1005.63 1005.87 1005.99 1006.11 1006.31 1006.51 1006.67 1006.99 1007.27 1007.31 1007.67 1008.27 1008.71 1009.03 1009.43 1009.71 1010.03 1010.39 1010.71 1011.11 1011.39 1011.71 1012.03 1012.47 1012.83 1013.11 1013.39 1013.75 1014.11 1014.35 1014.55 1014.71 1014.83 1014.87 1014.95 1015.03 1015.11 1015.23 1015.35
1004.03 1004.31 1004.67 1004.87 1005.11 1005.43 1005.71 1005.87 1006.03 1006.15 1006.35 1006.63 1006.95 1007.43 1007.75 1008.03 1008.47 1008.91 1009.23 1009.63 1010.03 1010.35 1010.67 1011.03 1011.39 1011.67 1012.03 1012.39 1012.75 1013.07 1013.47 1013.87 1014.11 1014.31 1014.51 1014.59 1014.63 1014.67 1014.71 1014.83 1014.91 1014.99
1003.43 1003.79 1004.03 1004.35 1004.67 1005.11 1005.39 1005.59 1005.71 1005.79 1005.91 1006.35 1006.75 1007.07 1007.31 1007.55 1007.87 1008.43 1008.99 1009.47 1009.75 1010.03 1010.43 1010.75 1011.11 1011.35 1011.59 1011.99 1012.51 1012.87 1013.15 1013.51 1013.79 1014.03 1014.19 1014.35 1014.47 1014.51 1014.51 1014.55 1014.63 1014.67
1002.87 1003.31 1003.67 1003.99 1004.43 1004.79 1004.95 1005.07 1005.27 1005.47 1005.75 1006.15 1006.51 1006.75 1007.11 1007.39 1007.67 1008.19 1008.59 1009.07 1009.51 1009.87 1010.23 1010.51 1010.83 1010.99 1011.23 1011.59 1011.91 1012.35 1012.83 1013.11 1013.35 1013.63 1013.83 1014.03 1014.23 1014.39 1014.43 1014.47 1014.51 1014.55
1002.43 1002.87 1003.23 1003.71 1003.95 1004.23 1004.51 1004.83 1005.07 1005.31 1005.71 1006.07 1006.39 1006.71 1007.03 1007.27 1007.63 1008.23 1008.51 1008.79 1009.23 1009.59 1010.03 1010.31 1010.51 1010.67 1011.03 1011.43 1011.71 1012.03 1012.43 1012.79 1013.07 1013.31 1013.47 1013.71 1013.91 1014.19 1014.43 1014.47 1014.47 1014.43
1001.87 1002.35 1002.95 1003.39 1003.75 1004.15 1004.43 1004.71 1005.07 1005.51 1005.95 1006.27 1006.59 1006.87 1007.03 1007.23 1007.71 1008.07 1008.39 1008.79 1009.19 1009.59 1009.87 1010.03 1010.23 1010.39 1010.83 1011.19 1011.51 1011.87 1012.11 1012.43 1012.67 1012.95 1013.19 1013.43 1013.67 1013.87 1014.11 1014.27 1014.43 1014.47
1001.39 1002.07 1002.71 1003.23 1003.59 1003.83 1004.19 1004.63 1005.07 1005.51 1005.91 1006.23 1006.59 1006.75 1007.07 1007.59 1007.87 1008.19 1008.51 1008.67 1009.11 1009.55 1009.75 1009.87 1010.03 1010.35 1010.75 1011.15 1011.47 1011.79 1012.03 1012.23 1012.35 1012.55 1012.87 1013.15 1013.35 1013.55 1013.75 1013.99 1014.15 1014.27
1001.15 1001.87 1002.55 1003.03 1003.39 1003.79 1004.15 1004.59 1005.03 1005.47 1005.71 1005.91 1006.27 1006.63 1007.19 1007.67 1007.95 1008.31 1008.55 1008.79 1009.03 1009.39 1009.67 1009.83 1009.99 1010.31 1010.67 1011.07 1011.39 1011.71 1011.95 1012.23 1012.27 1012.39 1012.63 1012.87 1013.07 1013.19 1013.43 1013.71 1013.91 1014.19
1001.07 1001.71 1002.35 1002.87 1003.31 1003.83 1004.23 1004.63 1004.99 1005.35 1005.67 1005.91 1006.23 1006.75 1007.27 1007.67 1007.95 1008.31 1008.51 1008.71 1008.95 1009.27 1009.59 1009.79 1009.83 1010.15 1010.55 1010.91 1011.31 1011.63 1011.87 1012.19 1012.23 1012.31 1012.51 1012.71 1012.83 1012.99 1013.23 1013.47 1013.63 1013.87
1001.07 1001.75 1002.35 1002.87 1003.39 1003.91 1004.35 1004.83 1005.03 1005.39 1005.75 1005.83 1006.15 1006.51 1006.79 1007.19 1007.59 1007.87 1008.39 1008.71 1008.91 1009.23 1009.55 1009.83 1009.75 1010.07 1010.39 1010.79 1011.11 1011.39 1011.71 1012.11 1012.19 1012.35 1012.51 1012.71 1012.91 1013.03 1013.15 1013.27 1013.39 1013.75
1000.95 1001.63 1002.31 1002.83 1003.27 1003.83 1004.35 1004.67 1005.03 1005.31 1005.47 1005.55 1006.11 1006.31 1006.67 1007.03 1007.39 1007.67 1007.99 1008.43 1008.79 1009.11 1009.47 1009.71 1009.83 1010.07 1010.35 1010.59 1010.91 1011.11 1011.63 1011.95 1012.07 1012.27 1012.51 1012.71 1012.83 1012.91 1013.03 1013.19 1013.31 1013.43
1000.79 1001.35 1002.03 1002.55 1003.19 1003.75 1004.11 1004.43 1004.67 1004.91 1005.27 1005.35 1005.91 1006.23 1006.43 1006.63 1006.91 1007.35 1007.71 1008.07 1008.59 1008.99 1009.23 1009.63 1009.63 1009.91 1010.19 1010.43 1010.63 1010.99 1011.35 1011.63 1011.91 1012.19 1012.47 1012.63 1012.79 1012.83 1012.91 1013.03 1013.07 1013.19
1000.71 1001.27 1001.87 1002.47 1003.15 1003.51 1003.87 1004.35 1004.71 1005.07 1005.23 1005.39 1005.71 1005.95 1006.15 1006.19 1006.47 1006.95 1007.47 1007.79 1008.03 1008.35 1008.67 1009.11 1009.27 1009.71 1010.15 1010.39 1010.71 1011.07 1011.31 1011.43 1011.75 1012.15 1012.51 1012.67 1012.75 1012.91 1012.95 1012.99 1013.07 1013.19
1000.75 1001.43 1001.95 1002.51 1003.15 1003.59 1003.99 1004.43 1004.63 1004.95 1005.27 1005.59 1005.83 1006.07 1006.31 1006.27 1006.35 1006.67 1007.23 1007.55 1007.71 1008.03 1008.43 1008.71 1009.03 1009.59 1010.07 1010.43 1010.75 1011.03 1011.15 1011.23 1011.55 1012.03 1012.39 1012.47 1012.47 1012.79 1012.99 1013.07 1013.03 1013.07
Wind_Speed
10 9 9 9 8 7 7 7 8 8 7 7 7 6 7 4 7 6 8 6 6 6 6 6 4 4 4 4 4 2 3 5 3 7 4 3 5 5 5 3 1 1
12 11 9 9 8 8 7 8 8 8 8 7 7 7 6 6 7 8 8 9 7 7 7 7 6 5 4 4 4 4 3 3 3 4 6 7 4 3 2 1 2 1
12 12 12 11 10 10 10 8 8 8 8 7 7 8 8 7 7 7 8 9 8 8 7 7 7 6 5 5 5 4 5 4 4 5 4 5 5 5 4 4 2 4
14 13 12 12 11 11 9 8 8 7 7 7 7 8 8 8 7 9 7 9 8 8 8 8 7 7 6 5 6 6 5 4 3 4 3 5 6 5 5 4 3 2
15 13 12 11 10 11 10 10 11 9 9 9 9 8 9 9 9 10 9 9 8 8 8 9 8 8 8 6 5 6 6 6 5 5 4 3 2 4 4 3 3 3
13 12 12 11 11 11 11 11 10 11 11 12 10 9 9 11 10 9 10 11 10 9 9 9 9 8 9 8 7 6 6 6 6 5 4 2 3 3 3 5 6 6
15 14 14 13 13 12 12 11 10 12 11 10 10 10 11 12 11 11 11 10 11 9 9 9 9 9 9 8 7 7 5 5 5 6 6 5 4 4 4 3 2 1
16 14 14 13 14 12 12 12 12 11 12 10 12 11 12 13 13 12 11 11 11 10 9 10 10 10 9 8 8 8 8 6 6 5 6 7 6 6 6 4 3 3
15 14 14 16 16 13 15 16 14 12 13 13 12 12 12 12 13 12 10 11 10 10 10 10 11 11 9 8 9 10 9 8 7 6 5 5 6 5 5 4 4 3
15 14 19 19 18 15 18 17 17 15 13 13 13 12 13 12 12 12 11 12 12 11 11 10 11 10 9 9 9 10 10 9 8 7 7 7 7 7 6 5 5 4
18 18 18 18 18 17 20 20 18 17 14 15 14 15 14 13 12 12 11 12 12 12 12 12 12 11 11 10 9 9 10 9 8 7 8 8 9 8 7 7 7 6
18 19 20 19 19 18 20 20 18 17 16 15 16 16 13 13 12 11 12 13 12 12 12 13 12 12 12 11 11 10 9 9 8 8 8 7 7 7 7 6 5 5
19 18 16 18 17 17 16 16 17 18 19 18 16 16 15 14 13 13 11 12 13 12 13 13 13 13 12 11 11 10 9 9 9 9 8 8 7 7 7 6 6 5
18 16 16 17 16 15 15 15 15 15 15 14 13 14 15 14 14 14 13 12 12 13 12 12 12 12 12 12 11 10 9 9 8 9 9 8 8 8 7 8 7 6
15 14 14 15 15 15 15 16 15 14 14 13 12 13 11 12 11 11 14 13 12 13 13 12 12 12 11 12 11 10 9 9 10 9 9 8 8 8 7 6 5 6
15 14 14 15 15 16 16 16 15 15 14 13 13 13 11 10 10 10 13 14 14 13 13 12 11 10 12 18 14 10 10 8 8 9 9 8 8 7 7 6 6 6
15 14 14 15 16 16 15 15 14 12 12 12 12 11 10 9 9 11 12 12 13 13 14 12 11 10 16 16 17 16 11 9 8 8 9 8 7 7 6 7 5 5
15 15 15 15 15 15 14 14 11 10 9 9 9 9 8 7 10 11 10 10 10 12 12 10 10 11 17 17 17 16 12 9 9 7 8 8 7 6 6 5 6 5
15 15 15 14 14 14 12 11 11 10 9 9 9 8 7 8 8 7 8 9 9 10 10 9 9 12 17 17 16 15 14 10 7 7 7 7 7 7 7 6 6 5
15 15 15 14 13 11 10 10 10 10 8 8 7 6 6 6 7 7 6 7 7 7 7 7 7 12 17 17 16 16 15 11 7 6 6 6 7 7 6 6 6 5
14 14 14 13 12 10 9 9 10 8 7 7 7 7 7 7 7 7 6 7 7 7 7 7 7 16 17 18 16 17 16 12 9 7 5 4 4 4 5 5 5 4
12 12 13 11 12 10 9 8 8 7 6 7 6 6 6 6 6 6 7 6 6 6 7 8 7 17 18 19 19 18 18 9 9 8 6 5 5 3 4 3 3 4
12 12 12 12 11 10 10 9 8 7 7 6 7 7 8 8 8 8 6 7 7 6 6 6 5 13 18 20 18 20 13 7 9 7 7 7 6 5 5 6 5 4
12 12 12 12 10 11 9 8 8 7 7 7 7 8 8 8 8 8 8 7 8 7 7 6 6 10 17 19 20 18 13 9 8 8 7 7 5 6 5 4 4 9
12 11 12 12 10 9 8 8 8 6 5 5 6 5 5 4 5 5 7 7 9 9 11 9 6 8 14 16 15 15 13 7 8 6 7 6 7 5 4 3 3 1
11 11 10 10 8 9 7 7 6 6 6 6 4 3 3 3 4 4 6 7 6 6 7 9 8 7 11 14 15 15 16 8 7 7 7 7 6 5 4 3 3 4
Wind_Direction
186 182 182 180 180 182 175 168 168 172 170 172 171 179 170 163 148 161 161 156 152 158 155 155 173 176 167 156 159 182 160 180 178 157 191 169 184 208 203 220 147 336
185 181 178 177 177 178 175 171 168 175 174 170 173 163 155 163 161 182 153 165 167 168 161 163 169 178 173 165 167 174 194 187 199 186 180 177 184 174 202 228 248 328
184 182 178 178 180 180 182 173 170 172 174 177 166 156 160 172 179 177 164 167 174 171 167 168 169 175 177 176 169 180 184 201 211 218 178 178 158 177 203 220 213 194
185 183 180 180 181 179 180 174 172 170 168 173 180 161 169 174 185 176 176 180 173 174 167 171 174 170 181 189 170 180 187 191 218 251 230 190 187 175 177 188 207 231
183 182 180 181 179 175 178 176 179 173 178 178 181 174 173 179 188 179 180 183 181 176 168 172 172 170 174 191 176 177 190 185 196 216 251 247 221 182 178 176 196 211
185 181 177 179 181 175 179 178 177 174 186 180 183 176 178 176 191 185 184 184 185 180 177 173 177 176 176 181 186 182 191 194 196 208 209 234 238 230 217 189 198 201
184 182 179 178 183 180 177 177 179 178 188 186 178 185 179 182 189 190 186 187 186 185 181 177 177 186 179 180 181 186 193 203 206 195 203 203 218 240 238 233 207 196
186 181 180 181 185 182 175 176 186 182 187 186 185 187 183 186 191 194 187 183 184 180 182 177 177 185 184 175 180 182 193 204 214 210 195 199 202 208 219 220 224 225
183 183 183 185 186 179 184 186 188 187 187 190 188 191 189 191 193 193 185 181 184 180 182 181 177 182 184 178 179 184 192 198 205 215 206 207 206 212 208 203 216 216
183 183 188 189 187 183 188 194 193 192 191 190 193 194 194 196 194 190 185 182 184 181 182 181 177 179 182 185 182 185 190 195 199 202 209 209 214 214 215 214 209 206
186 188 190 189 187 188 192 194 195 194 194 195 195 199 197 193 193 189 187 184 185 183 181 181 178 179 185 186 188 184 186 192 195 202 206 206 208 209 209 200 200 202
189 194 192 189 190 193 194 195 195 193 194 196 198 201 196 194 192 191 189 188 185 183 181 180 177 181 184 186 186 183 185 191 198 206 214 214 208 210 207 204 204 195
191 192 189 189 192 194 194 196 196 196 197 198 199 199 195 194 193 192 191 188 186 182 182 180 179 181 182 184 185 184 185 193 200 204 210 214 216 212 211 206 205 185
192 188 186 189 190 192 194 198 198 198 198 198 196 198 197 196 190 190 189 185 184 184 183 180 181 181 180 182 183 183 186 194 201 206 206 210 209 210 209 208 194 181
187 187 188 188 188 189 194 197 200 202 197 193 195 200 201 198 188 179 178 181 182 183 183 184 186 185 182 180 181 183 190 194 199 206 206 207 206 206 206 204 184 184
184 185 187 187 187 192 196 198 199 198 197 196 196 198 197 194 183 177 176 182 183 181 183 185 187 187 182 178 177 180 187 196 197 203 208 209 201 200 202 195 192 196
182 184 184 187 190 195 198 201 200 198 197 198 197 196 198 191 178 178 181 179 181 181 183 186 186 186 171 173 174 179 183 195 200 199 204 206 200 195 199 194 194 190
182 181 183 187 191 194 197 200 199 199 201 200 199 196 188 175 180 183 182 176 181 185 186 184 187 168 167 172 175 181 188 193 201 201 196 201 203 197 195 194 195 195
180 179 180 184 191 193 193 192 193 194 193 191 189 169 146 169 174 170 180 174 179 187 190 184 185 156 168 172 176 185 197 206 200 200 197 194 198 197 187 186 190 189
174 172 177 180 183 183 179 173 172 181 179 174 161 144 149 143 159 161 170 183 179 183 183 177 190 157 168 172 178 189 201 206 217 196 201 201 197 191 180 180 189 190
156 168 175 173 172 170 161 164 182 174 167 154 153 140 145 149 156 164 173 181 173 172 189 186 188 161 167 173 180 193 202 204 215 208 204 194 188 171 164 184 197 200
139 144 153 157 166 163 156 175 178 175 163 154 155 158 153 151 155 170 164 169 174 172 191 192 176 164 170 175 184 193 199 197 209 210 209 195 184 167 196 201 184 202
141 140 146 150 153 157 172 173 174 172 167 159 174 180 167 162 161 170 160 169 175 177 185 192 169 174 174 181 183 193 188 190 202 203 201 195 194 193 204 211 202 207
147 145 142 145 150 166 168 169 176 180 182 172 182 186 190 175 168 172 163 167 169 177 192 197 196 174 183 184 188 185 179 186 193 195 198 209 205 210 188 155 199 218
143 142 148 159 161 163 171 179 187 182 183 180 189 181 185 175 176 172 152 166 177 178 192 193 210 166 185 184 181 176 183 184 186 185 199 201 203 174 128 156 149 149
149 153 150 153 149 171 177 179 168 168 167 157 149 151 163 181 152 169 157 171 170 161 172 187 197 147 172 179 173 177 185 181 180 187 198 199 198 183 156 154 173 186